1489273201.02,53455,7.69,72938.8,-13.07,-46.75,-46.83,0,*6E
1489273202.27,53456,7.69,72938.5,-13.07,-46.69,-46.83,0,*60
1489273203.54,53457,7.69,72940.8,-13.11,-46.49,-46.69,0,*60
1489273204.78,53458,7.69,72940.0,-13.07,-46.35,-46.41,0,*69
1489273206.04,53459,7.63,72936.5,-13.07,-46.41,-46.41,0,*6B
1489273207.26,53460,7.69,72942.0,-13.07,-46.55,-46.55,0,*61
1489273208.5,53461,7.63,72936.0,-13.07,-46.61,-46.55,0,*67
1489273209.77,53462,7.69,72936.3,-13.11,-46.61,-46.69,0,*6C
1489273210.99,53463,7.69,72938.5,-13.07,-46.55,-46.55,0,*62
1489273212.24,53464,7.69,72942.0,-13.07,-46.41,-46.61,0,*67
1489273213.51,53465,7.69,72938.8,-13.11,-46.49,-46.61,0,*69
1489273214.74,53466,7.69,72938.0,-13.07,-46.83,-46.83,0,*67
1489273216.0,53467,7.69,72938.5,-13.07,-46.61,-46.41,0,*64
1489273217.28,53468,7.69,72936.8,-13.11,-46.49,-46.49,0,*6E
1489273218.56,53469,7.69,72940.0,-13.11,-46.49,-46.49,0,*6F
1489273219.8,53470,7.69,72938.5,-13.07,-46.41,-46.35,0,*63
1489273221.03,53471,7.69,72940.0,-13.07,-46.41,-46.55,0,*64
1489273222.25,53472,7.69,72940.0,-13.07,-46.35,-46.55,0,*64
1489273223.52,53473,7.69,72940.0,-13.11,-46.49,-46.69,0,*66
1489273224.8,53474,7.63,72940.3,-13.11,-46.49,-46.49,0,*63
1489273226.08,53475,7.69,72938.3,-13.11,-46.49,-46.49,0,*62
1489273227.36,53476,7.63,72936.0,-13.11,-46.49,-46.49,0,*61
1489273228.6,53477,7.63,72940.0,-13.07,-46.55,-46.41,0,*62
1489273229.86,53478,7.69,72940.3,-13.11,-46.41,-46.61,0,*6D
1489273231.13,53479,7.63,72942.8,-13.11,-47.03,-47.03,0,*6E
1489273232.4,53480,7.63,72936.5,-13.11,-46.69,-46.89,0,*66
1489273233.65,53481,7.63,72936.5,-13.11,-46.69,-46.83,0,*6D
1489273234.86,53482,7.69,72942.8,-13.07,-46.55,-46.75,0,*6F
1489273236.13,53483,7.69,72942.0,-13.11,-46.61,-46.61,0,*6B
1489273237.39,53484,7.69,72940.3,-13.07,-46.41,-46.61,0,*69
1489273238.66,53485,7.63,72940.8,-13.11,-46.49,-46.61,0,*67
1489273239.89,53486,7.69,72940.0,-13.11,-46.83,-46.83,0,*6E
1489273241.1,53487,7.69,72942.8,-13.07,-46.75,-46.75,0,*68
1489273242.35,53488,7.69,72944.0,-13.11,-46.69,-46.83,0,*64
1489273243.62,53489,7.69,72946.3,-13.11,-46.61,-46.69,0,*69
1489273244.87,53490,7.63,72944.5,-13.11,-46.69,-46.83,0,*6D
1489273246.14,53491,7.69,72942.8,-13.11,-46.49,-46.61,0,*62
1489273247.35,53492,7.69,72942.3,-13.07,-45.95,-45.95,0,*6C
1489273248.61,53493,7.63,72942.3,-13.11,-46.49,-46.83,0,*6C
1489273249.88,53494,7.69,72946.8,-13.11,-46.41,-46.49,0,*65
1489273251.15,53495,7.69,72944.3,-13.11,-46.41,-46.49,0,*64
1489273252.43,53496,7.63,72940.8,-13.11,-46.27,-46.49,0,*67
1489273253.7,53497,7.63,72938.3,-13.11,-46.49,-46.61,0,*64
1489273254.98,53498,7.69,72944.0,-13.11,-46.49,-46.49,0,*61
1489273256.25,53499,7.69,72942.5,-13.11,-46.61,-46.61,0,*60
1489273257.51,53500,7.69,72940.0,-13.11,-46.41,-46.41,0,*61
1489273258.78,53501,7.69,72942.8,-13.11,-46.61,-46.69,0,*68
1489273260.05,53502,7.63,72938.8,-13.11,-46.61,-46.69,0,*6B
1489273261.33,53503,7.69,72940.3,-13.11,-46.61,-46.49,0,*68
1489273262.6,53504,7.69,72938.5,-13.11,-46.41,-46.49,0,*6D
1489273263.86,53505,7.69,72938.3,-13.11,-46.41,-46.41,0,*64
1489273265.13,53506,7.69,72940.8,-13.11,-46.41,-46.41,0,*67
1489273266.35,53507,7.69,72940.5,-13.11,-46.21,-46.21,0,*66
1489273267.63,53508,7.63,72942.8,-13.11,-46.27,-46.27,0,*69
1489273268.91,53509,7.69,72946.8,-13.11,-46.15,-46.15,0,*68
1489273270.14,53510,7.69,72942.5,-13.11,-46.01,-46.01,0,*60
1489273271.39,53511,7.69,72942.8,-13.11,-46.15,-46.21,0,*66
1489273272.64,53512,7.69,72938.0,-13.07,-46.21,-46.15,0,*62
1489273273.91,53513,7.69,72942.5,-13.11,-46.41,-46.49,0,*6B
1489273275.12,53514,7.69,72940.5,-13.07,-46.21,-46.21,0,*63
1489273276.37,53515,7.69,72940.8,-13.11,-46.15,-46.21,0,*62
1489273277.62,53516,7.69,72940.8,-13.11,-46.21,-46.27,0,*60
1489273278.84,53517,7.69,72942.8,-13.07,-46.55,-46.55,0,*60
1489273280.11,53518,7.69,72940.3,-13.11,-46.61,-46.69,0,*60
1489273281.35,53519,7.63,72940.8,-13.07,-46.35,-46.41,0,*6D
1489273282.57,53520,7.69,72940.3,-13.07,-46.21,-46.35,0,*61
1489273283.82,53521,7.69,72942.0,-13.11,-46.01,-46.15,0,*67
1489273285.09,53522,7.69,72942.0,-13.07,-46.07,-46.15,0,*65
1489273286.31,53523,7.69,72940.3,-13.11,-46.21,-46.35,0,*65
1489273287.53,53524,7.69,72942.0,-13.07,-46.55,-46.75,0,*62
1489273288.76,53525,7.69,72948.0,-13.11,-46.35,-46.35,0,*66
1489273290.02,53526,7.69,72946.8,-13.07,-46.41,-46.41,0,*62
1489273291.29,53527,7.69,72940.0,-13.11,-46.61,-46.69,0,*6C
1489273292.52,53528,7.69,72944.3,-13.07,-46.41,-46.55,0,*69
1489273293.79,53529,7.69,72940.8,-13.11,-46.41,-46.41,0,*6A
1489273295.01,53530,7.69,72944.5,-13.11,-46.21,-46.21,0,*62
1489273296.28,53531,7.69,72946.5,-13.11,-46.69,-46.69,0,*63
1489273297.55,53532,7.69,72940.5,-13.11,-46.69,-46.69,0,*60
1489273298.79,53533,7.69,72938.3,-13.07,-46.55,-46.61,0,*61
1489273300.01,53534,7.69,72942.5,-13.07,-46.35,-46.35,0,*61
1489273301.25,53535,7.63,72938.5,-13.07,-46.15,-46.21,0,*67
1489273302.5,53536,7.63,72942.8,-13.07,-46.21,-46.15,0,*64
1489273303.71,53537,7.69,72942.8,-13.07,-46.55,-46.55,0,*62
1489273304.95,53538,7.69,72940.5,-13.07,-45.95,-46.07,0,*65
1489273306.2,53539,7.69,72942.8,-13.07,-46.15,-46.21,0,*6B
1489273307.47,53540,7.63,72942.8,-13.07,-46.07,-46.07,0,*62
1489273308.68,53541,7.69,72942.3,-13.07,-46.21,-46.21,0,*63
1489273309.9,53542,7.69,72944.5,-13.07,-46.21,-46.21,0,*60
1489273311.17,53543,7.63,72944.0,-13.07,-46.07,-46.15,0,*62
1489273312.44,53544,7.69,72944.0,-13.07,-46.07,-46.15,0,*65
1489273313.66,53545,7.69,72944.8,-13.07,-46.35,-46.35,0,*67
1489273314.88,53546,7.69,72942.5,-13.07,-46.21,-46.55,0,*67
1489273316.11,53547,7.69,72940.8,-13.07,-46.61,-46.75,0,*60
1489273317.33,53548,7.63,72944.3,-13.07,-46.35,-46.55,0,*6C
1489273318.55,53549,7.69,72950.0,-13.07,-46.55,-46.75,0,*69
1489273319.77,53550,7.69,72944.5,-13.03,-46.35,-46.55,0,*61
1489273321.05,53551,7.69,72942.3,-13.03,-46.27,-46.49,0,*6E
1489273322.27,53552,7.63,72944.5,-13.03,-46.35,-46.55,0,*63
1489273323.51,53553,7.69,72942.8,-13.07,-46.55,-46.61,0,*67
1489273324.75,53554,7.69,72944.8,-13.07,-46.41,-46.55,0,*62
1489273325.98,53555,7.63,72940.5,-13.07,-46.55,-46.61,0,*61
1489273327.22,53556,7.63,72942.5,-13.07,-46.41,-46.55,0,*60
1489273328.46,53557,7.63,72940.3,-13.07,-46.35,-46.41,0,*67
1489273329.7,53558,7.63,72946.8,-13.07,-46.55,-46.61,0,*6C
1489273330.92,53559,7.69,72942.8,-13.07,-46.35,-46.55,0,*6C
1489273332.19,53560,7.63,72938.5,-13.11,-46.27,-46.41,0,*67
1489273333.41,53561,7.63,72936.5,-13.07,-46.21,-46.35,0,*64
1489273334.64,53562,7.69,72942.0,-13.07,-46.41,-46.55,0,*67
1489273335.88,53563,7.63,72936.8,-13.07,-46.55,-46.61,0,*64
1489273337.13,53564,7.63,72940.3,-13.07,-46.15,-46.21,0,*63
1489273338.35,53565,7.69,72942.8,-13.07,-46.35,-46.55,0,*63
1489273339.6,53566,7.63,72940.0,-13.11,-46.61,-46.83,0,*6D
1489273340.83,53567,7.63,72940.3,-13.07,-46.55,-46.61,0,*60
1489273342.05,53568,7.63,72942.3,-13.07,-46.35,-46.55,0,*6E
1489273343.28,53569,7.63,72942.3,-13.11,-46.55,-46.55,0,*6E
1489273344.52,53570,7.63,72940.0,-13.07,-46.21,-46.15,0,*66
1489273345.73,53571,7.63,72940.5,-13.07,-46.21,-46.35,0,*65
1489273347.01,53572,7.63,72940.3,-13.07,-46.15,-46.15,0,*63
1489273348.28,53573,7.63,72940.5,-13.07,-46.15,-46.15,0,*62
1489273349.56,53574,7.63,72942.8,-13.03,-46.07,-46.27,0,*63
1489273350.8,53575,7.69,72946.3,-13.07,-46.35,-46.41,0,*67
1489273352.04,53576,7.69,72942.0,-13.07,-46.35,-46.41,0,*64
1489273353.26,53577,7.69,72944.5,-13.07,-46.35,-46.55,0,*60
1489273354.5,53578,7.69,72944.5,-13.07,-46.55,-46.61,0,*6E
1489273355.75,53579,7.63,72944.5,-13.03,-46.27,-46.35,0,*6F
1489273356.99,53580,7.63,72940.3,-13.01,-45.87,-46.01,0,*65
1489273358.24,53581,7.69,72940.5,-13.03,-46.07,-46.01,0,*6D
1489273359.51,53582,7.63,72940.0,-13.03,-46.07,-46.07,0,*68
1489273360.79,53583,7.63,72942.3,-13.03,-46.15,-46.27,0,*68
1489273362.06,53584,7.69,72944.0,-13.03,-46.15,-46.27,0,*6F
1489273363.3,53585,7.69,72946.0,-13.07,-46.41,-46.55,0,*6E
1489273364.58,53586,7.63,72942.3,-13.03,-46.27,-46.27,0,*6C
1489273365.85,53587,7.63,72942.3,-13.03,-46.49,-46.49,0,*6D
1489273367.12,53588,7.69,72946.8,-13.03,-46.49,-46.69,0,*60
1489273368.37,53589,7.69,72942.8,-13.03,-46.27,-46.35,0,*60
1489273369.63,53590,7.63,72940.5,-13.07,-46.41,-46.41,0,*6F
1489273370.87,53591,7.63,72940.8,-13.03,-46.55,-46.69,0,*65
1489273372.11,53592,7.63,72942.0,-13.03,-46.69,-46.75,0,*64
1489273373.39,53593,7.69,72944.0,-13.03,-46.27,-46.49,0,*60
1489273374.66,53594,7.69,72940.0,-13.03,-46.07,-46.07,0,*6F
1489273375.94,53595,7.63,72938.5,-13.07,-46.15,-46.15,0,*6A
1489273377.18,53596,7.69,72940.5,-13.07,-46.21,-46.41,0,*6F
1489273378.42,53597,7.69,72946.3,-13.07,-46.61,-46.83,0,*64
1489273379.66,53598,7.69,72946.5,-13.07,-46.41,-46.75,0,*60
1489273380.9,53599,7.69,72942.5,-13.07,-46.61,-46.75,0,*63
1489273382.14,53600,7.69,72940.8,-13.03,-46.55,-46.69,0,*6E
1489273383.38,53601,7.63,72938.3,-13.07,-46.35,-46.41,0,*67
1489273384.63,53602,7.69,72940.3,-13.07,-46.15,-46.21,0,*60
1489273385.86,53603,7.69,72940.3,-13.07,-46.21,-46.41,0,*60
1489273387.1,53604,7.63,72938.5,-13.07,-46.21,-46.41,0,*67
1489273388.32,53605,7.69,72940.3,-13.07,-46.35,-46.55,0,*66
1489273389.58,53606,7.69,72942.8,-13.07,-46.61,-46.61,0,*63
1489273390.84,53607,7.63,72936.3,-13.07,-46.41,-46.61,0,*60
1489273392.11,53608,7.69,72940.8,-13.11,-46.69,-46.89,0,*64
1489273393.37,53609,7.69,72940.0,-13.07,-46.41,-46.41,0,*6C
1489273394.64,53610,7.69,72944.8,-13.03,-46.41,-46.27,0,*60
1489273395.86,53611,7.69,72944.0,-13.07,-46.35,-46.55,0,*63
1489273397.12,53612,7.69,72944.5,-13.07,-46.41,-46.41,0,*66
1489273398.36,53613,7.69,72942.0,-13.07,-46.21,-46.41,0,*61
1489273399.59,53614,7.63,72942.0,-13.07,-46.55,-46.61,0,*67
1489273400.83,53615,7.63,72940.5,-13.07,-46.41,-46.55,0,*64
1489273402.07,53616,7.69,72942.0,-13.07,-46.41,-46.55,0,*67
1489273403.29,53617,7.69,72944.0,-13.07,-46.35,-46.35,0,*63
1489273404.53,53618,7.63,72942.3,-13.07,-46.61,-46.75,0,*69
1489273405.75,53619,7.63,72936.8,-13.07,-46.35,-46.55,0,*6B
1489273407.01,53620,7.63,72936.5,-13.11,-46.41,-46.61,0,*62
1489273408.25,53621,7.69,72946.0,-13.07,-46.41,-46.55,0,*63
1489273409.48,53622,7.69,72946.0,-13.07,-46.35,-46.61,0,*64
1489273410.73,53623,7.63,72944.3,-13.07,-46.61,-46.75,0,*61
1489273411.99,53624,7.63,72942.5,-13.07,-46.49,-46.41,0,*6B
1489273413.26,53625,7.69,72942.5,-13.11,-46.61,-46.61,0,*65
1489273414.5,53626,7.63,72938.8,-13.07,-46.41,-46.55,0,*64
1489273415.75,53627,7.69,72940.5,-13.11,-46.69,-46.83,0,*63
1489273417.01,53628,7.69,72944.8,-13.07,-46.49,-46.61,0,*65
1489273418.27,53629,7.63,72940.5,-13.07,-46.41,-46.41,0,*6E
1489273419.51,53630,7.63,72948.5,-13.07,-46.41,-46.55,0,*63
1489273420.78,53631,7.63,72944.5,-13.11,-46.41,-46.49,0,*68
1489273422.05,53632,7.69,72946.8,-13.11,-46.61,-46.89,0,*65
1489273423.3,53633,7.63,72946.8,-13.11,-46.61,-46.83,0,*6E
1489273424.52,53634,7.69,72938.3,-13.07,-46.35,-46.55,0,*64
1489273425.77,53635,7.69,72936.3,-13.11,-46.61,-46.83,0,*68
1489273427.01,53636,7.69,72940.3,-13.07,-46.41,-46.83,0,*6E
1489273428.28,53637,7.69,72940.8,-13.11,-46.61,-46.69,0,*6E
1489273429.54,53638,7.69,72944.0,-13.11,-46.41,-46.61,0,*6B
1489273430.81,53639,7.63,72938.3,-13.11,-46.41,-46.49,0,*60
1489273432.06,53640,7.63,72938.3,-13.11,-46.21,-46.27,0,*60
1489273433.34,53641,7.69,72942.0,-13.11,-46.27,-46.41,0,*67
1489273434.55,53642,7.63,72936.8,-13.07,-46.21,-46.21,0,*63
1489273435.77,53643,7.69,72940.3,-13.07,-46.21,-46.35,0,*67
1489273437.04,53644,7.63,72942.8,-13.11,-46.49,-46.61,0,*68
1489273438.27,53645,7.63,72942.0,-13.07,-46.55,-46.61,0,*63
1489273439.54,53646,7.69,72944.0,-13.11,-46.41,-46.49,0,*68
1489273440.82,53647,7.63,72940.3,-13.11,-46.49,-46.49,0,*61
1489273442.07,53648,7.63,72944.0,-13.07,-46.35,-46.41,0,*6A
1489273443.34,53649,7.69,72944.8,-13.11,-46.61,-46.69,0,*67
1489273444.61,53650,7.63,72942.5,-13.11,-46.27,-46.27,0,*67
1489273445.88,53651,7.69,72942.8,-13.11,-46.61,-46.69,0,*6E
1489273447.12,53652,7.69,72948.3,-13.07,-46.55,-46.61,0,*65
1489273448.37,53653,7.69,72944.0,-13.07,-46.49,-46.83,0,*65
1489273449.64,53654,7.69,72946.5,-13.11,-46.49,-46.69,0,*61
1489273450.92,53655,7.69,72944.5,-13.11,-46.49,-46.49,0,*62
1489273452.19,53656,7.69,72944.3,-13.11,-46.49,-46.69,0,*63
1489273453.43,53657,7.63,72942.3,-13.07,-46.61,-46.75,0,*62
1489273454.68,53658,7.69,72944.3,-13.11,-46.83,-46.69,0,*6B
1489273455.92,53659,7.69,72944.3,-13.07,-46.35,-46.41,0,*6A
1489273457.22,53660,7.69,72942.5,-13.13,-46.27,-46.27,0,*66
1489273458.49,53661,7.69,72940.8,-13.13,-46.21,-46.27,0,*61
1489273459.77,53662,7.69,72942.0,-13.13,-46.27,-46.35,0,*67
1489273461.01,53663,7.69,72946.8,-13.13,-46.55,-46.75,0,*67
1489273462.25,53664,7.63,72946.5,-13.07,-46.61,-46.75,0,*62
1489273463.52,53665,7.69,72942.3,-13.11,-46.61,-46.89,0,*67
1489273464.77,53666,7.69,72942.8,-13.11,-46.69,-46.83,0,*66
1489273466.04,53667,7.69,72946.5,-13.11,-46.69,-46.89,0,*6D
1489273467.32,53668,7.63,72942.3,-13.13,-46.89,-46.97,0,*61
1489273468.61,53669,7.69,72940.5,-13.13,-46.49,-46.69,0,*6D
1489273469.88,53670,7.63,72938.8,-13.13,-46.55,-46.69,0,*68
1489273471.13,53671,7.69,72942.8,-13.15,-46.49,-46.55,0,*6D
1489273472.4,53672,7.63,72942.3,-13.13,-46.49,-46.55,0,*68
1489273473.7,53673,7.69,72944.0,-13.13,-46.49,-46.69,0,*66
1489273474.97,53674,7.69,72944.3,-13.13,-46.55,-46.69,0,*6C
1489273476.23,53675,7.69,72944.3,-13.13,-46.75,-46.89,0,*61
1489273477.47,53676,7.69,72946.5,-13.13,-46.75,-47.09,0,*6B
1489273478.74,53677,7.69,72946.8,-13.15,-46.49,-46.69,0,*64
1489273480.01,53678,7.69,72946.0,-13.13,-46.75,-46.89,0,*6C
1489273481.25,53679,7.69,72942.5,-13.13,-46.97,-47.09,0,*68
1489273482.49,53680,7.63,72942.0,-13.13,-46.75,-46.75,0,*68
1489273483.76,53681,7.69,72942.5,-13.13,-46.55,-46.89,0,*68
1489273485.04,53682,7.69,72946.0,-13.13,-46.49,-46.55,0,*67
1489273486.33,53683,7.69,72948.5,-13.13,-46.49,-46.69,0,*69
1489273487.61,53684,7.63,72944.0,-13.15,-46.49,-46.49,0,*6A
1489273488.86,53685,7.63,72940.3,-13.13,-46.35,-46.55,0,*6B
1489273490.11,53686,7.63,72940.8,-13.13,-46.35,-46.35,0,*6E
1489273491.35,53687,7.63,72942.5,-13.13,-46.35,-46.35,0,*6F
1489273492.65,53688,7.69,72948.5,-13.13,-46.49,-46.69,0,*62
1489273493.94,53689,7.63,72946.0,-13.13,-46.69,-46.89,0,*6F
1489273495.24,53690,7.63,72944.3,-13.13,-46.69,-46.89,0,*67
1489273496.54,53691,7.63,72944.3,-13.13,-46.89,-46.89,0,*68
1489273497.78,53692,7.69,72946.0,-13.15,-46.69,-46.75,0,*60
1489273499.07,53693,7.69,72946.8,-13.13,-46.49,-46.69,0,*68
1489273500.32,53694,7.63,72946.0,-13.15,-46.55,-46.69,0,*64
1489273501.56,53695,7.69,72946.3,-13.15,-46.75,-46.89,0,*69
1489273502.8,53696,7.69,72944.5,-13.15,-46.89,-46.97,0,*66
1489273504.05,53697,7.63,72946.3,-13.15,-46.75,-46.89,0,*6B
1489273505.29,53698,7.69,72950.8,-13.15,-46.89,-46.97,0,*68
1489273506.51,53699,7.69,72944.5,-13.15,-46.55,-46.55,0,*66
1489273507.76,53700,7.63,72944.3,-13.15,-46.49,-46.55,0,*6A
1489273509.0,53701,7.63,72944.3,-13.15,-46.75,-46.69,0,*6B
1489273510.25,53702,7.63,72940.0,-13.15,-46.49,-46.55,0,*68
1489273511.49,53703,7.69,72944.0,-13.15,-46.35,-46.69,0,*6D
1489273512.74,53704,7.69,72946.3,-13.13,-46.35,-46.55,0,*63
1489273513.96,53705,7.63,72940.3,-13.15,-46.21,-46.35,0,*67
1489273515.23,53706,7.63,72942.0,-13.15,-46.27,-46.27,0,*61
1489273516.51,53707,7.69,72944.0,-13.13,-46.27,-46.35,0,*65
1489273517.73,53708,7.69,72944.0,-13.15,-46.21,-46.21,0,*6F
1489273518.94,53709,7.63,72940.5,-13.15,-46.21,-46.21,0,*6E
1489273520.22,53710,7.69,72944.8,-13.15,-46.27,-46.27,0,*66
1489273521.49,53711,7.63,72942.5,-13.13,-46.27,-46.35,0,*62
1489273522.77,53712,7.63,72942.3,-13.13,-46.35,-46.69,0,*6B
1489273524.03,53713,7.63,72946.8,-13.13,-46.55,-46.69,0,*6C
1489273525.33,53714,7.63,72940.8,-13.13,-46.89,-46.89,0,*64
1489273526.63,53715,7.69,72950.0,-13.13,-46.69,-46.69,0,*65
1489273527.87,53716,7.63,72946.3,-13.13,-46.75,-46.97,0,*6A
1489273529.11,53717,7.69,72950.5,-13.15,-46.69,-46.75,0,*6C
1489273530.4,53718,7.69,72950.0,-13.13,-46.69,-46.89,0,*66
1489273531.62,53719,7.69,72950.3,-13.15,-46.55,-46.75,0,*6D
1489273532.89,53720,7.69,72950.3,-13.13,-46.69,-46.75,0,*6E
1489273534.16,53721,7.63,72944.3,-13.13,-46.75,-46.89,0,*61
1489273535.41,53722,7.69,72948.5,-13.15,-46.89,-46.97,0,*68
1489273536.68,53723,7.69,72948.0,-13.15,-46.89,-46.89,0,*66
1489273537.92,53724,7.63,72948.5,-13.15,-46.69,-46.75,0,*6C
1489273539.19,53725,7.69,72948.5,-13.15,-46.69,-46.69,0,*60
1489273540.4,53726,7.63,72948.5,-13.15,-46.75,-46.75,0,*63
1489273541.65,53727,7.69,72952.8,-13.15,-46.89,-46.97,0,*6D
1489273542.9,53728,7.63,72950.3,-13.15,-46.89,-46.75,0,*6E
1489273544.15,53729,7.63,72948.0,-13.15,-46.89,-47.09,0,*65
1489273545.37,53730,7.63,72944.5,-13.15,-47.09,-46.97,0,*62
1489273546.59,53731,7.63,72944.8,-13.15,-46.83,-46.97,0,*60
1489273547.83,53732,7.69,72946.5,-13.15,-46.55,-46.69,0,*69
1489273549.08,53733,7.69,72944.0,-13.15,-46.49,-46.55,0,*6A
1489273550.32,53734,7.69,72944.5,-13.15,-46.49,-46.35,0,*6B
1489273551.55,53735,7.63,72940.8,-13.15,-46.35,-46.35,0,*61
1489273552.8,53736,7.69,72940.5,-13.15,-46.35,-46.27,0,*61
1489273554.04,53737,7.69,72942.3,-13.15,-46.49,-46.55,0,*6E
1489273555.27,53738,7.63,72936.3,-13.15,-46.35,-46.55,0,*6A
1489273556.49,53739,7.63,72934.3,-13.15,-46.35,-46.55,0,*6B
1489273557.74,53740,7.69,72940.8,-13.15,-46.35,-46.49,0,*68
1489273558.96,53741,7.69,72940.3,-13.15,-46.35,-46.35,0,*62
1489273560.21,53742,7.63,72940.3,-13.15,-46.27,-46.21,0,*67
1489273561.49,53743,7.69,72944.5,-13.15,-46.27,-46.27,0,*60
1489273562.75,53744,7.63,72942.0,-13.15,-46.69,-46.69,0,*67
1489273563.99,53745,7.69,72942.8,-13.15,-46.75,-46.89,0,*65
1489273565.21,53746,7.63,72942.3,-13.15,-46.55,-46.75,0,*67
1489273566.46,53747,7.69,72946.5,-13.15,-46.49,-46.35,0,*6F
1489273567.73,53748,7.69,72946.8,-13.15,-46.49,-46.69,0,*69
1489273568.95,53749,7.69,72944.0,-13.15,-46.55,-46.55,0,*6A
1489273570.22,53750,7.69,72942.3,-13.15,-46.49,-46.69,0,*60
1489273571.47,53751,7.69,72942.3,-13.15,-46.49,-46.55,0,*6E
1489273572.74,53752,7.63,72942.3,-13.15,-46.27,-46.27,0,*60
1489273574.02,53753,7.63,72940.5,-13.15,-46.27,-46.27,0,*61
1489273575.29,53754,7.63,72942.3,-13.15,-46.49,-46.49,0,*66
1489273576.54,53755,7.63,72940.8,-13.15,-46.49,-46.35,0,*6C
1489273577.78,53756,7.69,72944.8,-13.15,-46.55,-46.69,0,*6B
1489273579.06,53757,7.69,72944.0,-13.15,-46.49,-46.49,0,*65
1489273580.31,53758,7.63,72944.0,-13.15,-46.35,-46.49,0,*61
1489273581.56,53759,7.69,72948.8,-13.15,-46.35,-46.49,0,*60
1489273582.83,53760,7.63,72944.0,-13.15,-46.49,-46.49,0,*61
1489273584.05,53761,7.69,72944.8,-13.15,-46.55,-46.55,0,*60
1489273585.32,53762,7.63,72944.5,-13.15,-46.69,-46.89,0,*6D
1489273586.57,53763,7.63,72946.3,-13.15,-46.89,-46.97,0,*6D
1489273587.84,53764,7.69,72944.3,-13.15,-46.69,-46.89,0,*6B
1489273589.05,53765,7.63,72940.0,-13.15,-46.75,-46.75,0,*64
1489273590.29,53766,7.63,72944.8,-13.15,-46.75,-46.89,0,*64
1489273591.56,53767,7.63,72944.3,-13.15,-46.69,-46.89,0,*68
1489273592.8,53768,7.69,72946.3,-13.15,-46.55,-46.69,0,*66
1489273594.05,53769,7.63,72944.3,-13.15,-46.49,-46.55,0,*65
1489273595.32,53770,7.63,72946.3,-13.15,-46.69,-46.89,0,*6E
1489273596.53,53771,7.69,72946.5,-13.15,-46.75,-46.75,0,*61
1489273597.81,53772,7.63,72944.3,-13.15,-46.89,-46.89,0,*62
1489273599.05,53773,7.63,72948.0,-13.15,-46.75,-46.89,0,*60
1489273600.28,53774,7.69,72948.0,-13.19,-46.83,-46.83,0,*68
1489273601.54,53775,7.63,72944.5,-13.19,-47.03,-47.03,0,*69
1489273602.76,53776,7.69,72950.5,-13.19,-46.75,-46.75,0,*6A
1489273603.98,53777,7.63,72946.8,-13.19,-46.75,-46.83,0,*62
1489273605.21,53778,7.69,72948.3,-13.19,-47.03,-47.17,0,*61
1489273606.43,53779,7.69,72948.8,-13.19,-46.75,-46.97,0,*69
1489273607.64,53780,7.63,72946.5,-13.19,-47.17,-47.17,0,*63
1489273608.92,53781,7.63,72946.8,-13.15,-46.89,-46.89,0,*6E
1489273610.14,53782,7.69,72944.5,-13.19,-46.97,-46.97,0,*61
1489273611.39,53783,7.63,72946.0,-13.15,-46.89,-46.97,0,*63
1489273612.61,53784,7.69,72950.5,-13.19,-46.83,-46.83,0,*67
1489273613.84,53785,7.69,72950.5,-13.19,-46.83,-46.83,0,*66
1489273615.1,53786,7.63,72944.3,-13.19,-47.03,-47.03,0,*65
1489273616.34,53787,7.63,72944.5,-13.19,-47.23,-47.17,0,*63
1489273617.61,53788,7.69,72950.0,-13.23,-47.03,-47.03,0,*62
1489273618.88,53789,7.63,72944.0,-13.21,-46.83,-46.89,0,*6B
1489273620.16,53790,7.63,72944.3,-13.21,-46.69,-46.69,0,*69
1489273621.44,53791,7.63,72944.8,-13.21,-46.83,-46.89,0,*62
1489273622.71,53792,7.63,72944.3,-13.21,-46.83,-46.89,0,*61
1489273623.97,53793,7.63,72944.3,-13.23,-46.61,-46.69,0,*60
1489273625.26,53794,7.63,72946.0,-13.21,-46.69,-46.61,0,*65
1489273626.53,53795,7.69,72946.0,-13.21,-46.69,-46.83,0,*68
1489273627.75,53796,7.69,72946.8,-13.19,-46.75,-46.75,0,*64
1489273628.98,53797,7.63,72944.0,-13.19,-46.75,-46.61,0,*60
1489273630.22,53798,7.63,72942.3,-13.19,-46.55,-46.61,0,*6D
1489273631.49,53799,7.63,72944.3,-13.23,-46.61,-46.61,0,*62
1489273632.76,53800,7.63,72940.3,-13.21,-46.83,-46.89,0,*65
1489273634.01,53801,7.69,72944.0,-13.21,-46.83,-46.83,0,*6E
1489273635.3,53802,7.69,72944.5,-13.21,-46.61,-46.61,0,*6D
1489273636.59,53803,7.63,72944.0,-13.21,-46.61,-46.49,0,*66
1489273637.85,53804,7.63,72942.8,-13.23,-46.61,-46.61,0,*69
1489273639.1,53805,7.69,72944.8,-13.19,-46.61,-46.55,0,*66
1489273640.32,53806,7.69,72944.3,-13.19,-46.75,-46.75,0,*62
1489273641.58,53807,7.69,72948.5,-13.19,-46.61,-46.61,0,*63
1489273642.82,53808,7.69,72944.0,-13.19,-46.55,-46.61,0,*6B
1489273644.04,53809,7.63,72940.5,-13.19,-46.55,-46.55,0,*6D
1489273645.28,53810,7.69,72944.8,-13.19,-46.55,-46.61,0,*62
1489273646.5,53811,7.69,72946.3,-13.19,-46.55,-46.55,0,*64
1489273647.79,53812,7.63,72940.0,-13.21,-46.69,-46.69,0,*6C
1489273649.08,53813,7.63,72942.5,-13.21,-46.61,-46.69,0,*65
1489273650.37,53814,7.63,72942.5,-13.21,-46.61,-46.61,0,*6A
1489273651.63,53815,7.63,72944.5,-13.23,-46.61,-46.61,0,*69
1489273652.93,53816,7.63,72940.5,-13.21,-46.61,-46.49,0,*62
1489273654.22,53817,7.63,72940.3,-13.21,-46.49,-46.61,0,*63
1489273655.5,53818,7.63,72940.5,-13.21,-46.69,-46.69,0,*66
1489273656.79,53819,7.63,72940.0,-13.21,-46.61,-46.61,0,*67
1489273658.08,53820,7.63,72942.3,-13.21,-46.61,-46.69,0,*65
1489273659.32,53821,7.63,72942.3,-13.19,-46.55,-46.41,0,*62
1489273660.57,53822,7.63,72938.8,-13.19,-46.55,-46.41,0,*61
1489273661.82,53823,7.63,72942.5,-13.15,-46.49,-46.35,0,*62
1489273663.08,53824,7.63,72942.3,-13.19,-46.41,-46.41,0,*62
1489273664.34,53825,7.63,72940.0,-13.19,-46.41,-46.41,0,*63
1489273665.58,53826,7.63,72944.3,-13.19,-46.41,-46.55,0,*65
1489273666.84,53827,7.63,72942.3,-13.19,-46.35,-46.49,0,*6A
1489273668.09,53828,7.63,72940.8,-13.15,-46.35,-46.49,0,*69
1489273669.33,53829,7.63,72940.0,-13.19,-46.41,-46.55,0,*6A
1489273670.55,53830,7.63,72940.8,-13.19,-46.55,-46.55,0,*67
1489273671.77,53831,7.63,72936.3,-13.19,-46.55,-46.55,0,*66
1489273673.02,53832,7.63,72940.3,-13.15,-46.27,-46.35,0,*6A
1489273674.26,53833,7.63,72942.3,-13.19,-46.41,-46.55,0,*61
1489273675.48,53834,7.63,72940.5,-13.19,-46.55,-46.55,0,*63
1489273676.72,53835,7.63,72940.5,-13.19,-46.61,-46.75,0,*67
1489273677.99,53836,7.69,72946.0,-13.19,-46.61,-46.61,0,*61
1489273679.22,53837,7.63,72942.0,-13.19,-46.75,-46.61,0,*65
1489273680.49,53838,7.63,72942.5,-13.19,-46.61,-46.61,0,*6F
1489273681.76,53839,7.63,72942.5,-13.21,-46.83,-46.69,0,*61
1489273683.05,53840,7.63,72940.8,-13.21,-46.89,-46.89,0,*6B
1489273684.34,53841,7.63,72938.8,-13.21,-46.61,-46.69,0,*62
1489273685.56,53842,7.63,72940.8,-13.19,-46.75,-46.83,0,*6B
1489273686.83,53843,7.63,72942.8,-13.21,-46.83,-47.03,0,*61
1489273688.12,53844,7.69,72940.8,-13.21,-46.61,-46.69,0,*67
1489273689.39,53845,7.63,72942.5,-13.21,-46.69,-46.83,0,*6A
1489273690.68,53846,7.69,72944.0,-13.21,-46.49,-46.61,0,*67
1489273691.98,53847,7.69,72946.0,-13.21,-46.49,-46.49,0,*6C
1489273693.2,53848,7.63,72944.0,-13.19,-46.35,-46.55,0,*6E
1489273694.44,53849,7.69,72946.8,-13.19,-46.75,-46.61,0,*6C
1489273695.68,53850,7.63,72942.5,-13.19,-46.61,-46.75,0,*64
1489273696.9,53851,7.63,72946.0,-13.19,-46.75,-46.97,0,*6C
1489273698.17,53852,7.63,72942.5,-13.21,-46.83,-46.89,0,*62
1489273699.44,53853,7.63,72944.5,-13.21,-46.83,-46.89,0,*63
1489273700.68,53854,7.69,72944.5,-13.23,-46.83,-46.89,0,*66